Location: Newark
(34.6283°N, 36.0776°E)
Time: 06:54:32
(UTC+00:00)

S-56A Canister/Altair - Pass Details

Date: 19 October 2019
Orbit: 634 x 2498 km, 38.9° (Epoch: 20 November)

Event Time Altitude Azimuth Distance (km) Brightness Sun altitude
Rises 00:39:22 0° 249° (WSW) 3,356 - -38.5°
Reaches altitude 10° 00:41:29 10° 250° (WSW) 2,577 - -38.0°
Maximum altitude 00:47:39 89° 338° (NNW) 1,177 - -36.8°
Exits shadow 00:48:49 68° 67° (ENE) 1,311 8.6 -36.6°
Drops below altitude 10° 00:57:14 10° 71° (ENE) 3,894 11.9 -34.9°
Sets 01:01:08 0° 72° (ENE) 5,183 12.8 -34.1°
